This is the latest recevied weather packets stored in our database for station/object N7ZAP. If no packets are shown the sender has not sent any weather packets the latest 10 day(s).
| Time | Temp. | Humidity | Pressure | Rain* | Wind** | Luminosity | Snow |
|---|---|---|---|---|---|---|---|
| 1787910056 | 22.78° C | 43% | 1024.3 hPa | 0 mm | - | - | - |
| 1787909754 | 22.78° C | 42% | 1023.9 hPa | 0 mm | - | - | - |
| 1787909453 | 22.78° C | 41% | 1024 hPa | 0 mm | - | - | - |
| 1787909149 | 23.33° C | 41% | 1023.8 hPa | 0 mm | - | - | - |
| 1787908844 | 23.33° C | 40% | 1024.1 hPa | 0 mm | - | - | - |
| 1787908543 | 23.33° C | 39% | 1024 hPa | 0 mm | - | - | - |
| 1787908238 | 23.89° C | 38% | 1024.1 hPa | 0 mm | - | - | - |
| 1787907937 | 24.44° C | 37% | 1023.9 hPa | 0 mm | - | - | - |
| 1787907634 | 24.44° C | 36% | 1024.1 hPa | 0 mm | - | - | - |
| 1787907332 | 25° C | 35% | 1023.9 hPa | 0 mm | - | - | - |
| 1787907029 | 25.56° C | 35% | 1024 hPa | 0 mm | - | - | - |
| 1787906725 | 25.56° C | 34% | 1023.8 hPa | 0 mm | - | - | - |
| 1787906421 | 25.56° C | 34% | 1023.9 hPa | 0 mm | - | - | - |
| 1787906120 | 25.56° C | 35% | 1023.9 hPa | 0 mm | - | - | - |
| 1787905816 | 25.56° C | 35% | 1023.9 hPa | 0 mm | - | - | - |
| 1787905510 | 25.56° C | 34% | 1024.1 hPa | 0 mm | - | - | - |
| 1787905207 | 25.56° C | 34% | 1024 hPa | 0 mm | - | - | - |
| 1787904900 | 25.56° C | 34% | 1024 hPa | 0 mm | - | - | - |
| 1787904598 | 26.11° C | 34% | 1024 hPa | 0 mm | - | - | - |
| 1787904297 | 25.56° C | 34% | 1024.2 hPa | 0 mm | - | - | - |
| 1787903997 | 25.56° C | 34% | 1024.2 hPa | 0 mm | - | - | - |
| 1787903693 | 25.56° C | 34% | 1024.2 hPa | 0 mm | - | - | - |
| 1787903389 | 25° C | 35% | 1024.1 hPa | 0 mm | - | - | - |
| 1787903084 | 25° C | 36% | 1024.5 hPa | 0 mm | - | - | - |
| 1787902781 | 25° C | 36% | 1024.5 hPa | 0 mm | - | - | - |
* Rain latest hour (hover to see other rain measurements)
** Current wind speed in m/s (hover to see current wind gust speed)